HYPERVIEW 1G (RS66S)

Last updated on Sat Aug 15 2026 00:03:14 GMT+0000 (Coordinated Universal Time)

1 61772U 24199AP 26226.59754743 .01371486 13741-2 12151-2 0 9990 2 61772 97.2563 110.3152 0005515 175.9860 184.1471 16.13283789143947
UTC large
Height (km)
Speed (km/s)
/
Latitude / Longitude
Inclination (degrees)
Orbital Period (minutes)
Azimuth
Elevation
Range (km)
Doppler Factor

Next 0 passes for location: London (51.5072 / 0.1276)

No passes found over London.
HYPERVIEW 1G (RS66S)